Regional Weather Roundup
Issued by NWS

Home | Current Version | Previous Version | Text Only | Print | Product List | Glossary On
Versions: 1 2 3 4 5 6 7 8 9 10 11 12 13 14 15 16 17 18 19 20 21 22 23 24 25 26 27 28 29 30 31 32 33 34 35 36 37 38 39 40 41 42 43 44 45 46 47 48 49 50
000
ASUS43 KOAX 270110
RWRNE

WEATHER ROUNDUP FOR NEBRASKA
NATIONAL WEATHER SERVICE OMAHA NE
700 PM CST FRI DEC 26 2014

NOTES: SATELLITE DATA IS BEING USED TO AUGMENT CLOUD COVER ABOVE
       12000 FEET.
       "FAIR" INDICATES FEW OR NO CLOUDS BELOW 12,000 FEET WITH NO
       SIGNIFICANT WEATHER AND/OR OBSTRUCTIONS TO VISIBILITY.

  * THESE STATIONS DO NOT REPORT WEATHER SUCH AS RAIN...SNOW OR FOG.

NEZ001>004-019>022-054>056-270200-
NEBRASKA PANHANDLE

CITY           SKY/WX    TMP DP  RH WIND       PRES   REMARKS
SCOTTSBLUFF    LGT SNOW  19  16  88 NW3       30.07R FOG
ALLIANCE       CLOUDY    17  14  88 N7        30.05R WCI   8
CHADRON        CLOUDY    19  14  81 E3        30.11R
KIMBALL        LGT SNOW  15  13  91 NW5       29.99R WCI   8
SIDNEY         LGT SNOW  16  12  84 N6        30.04R FOG     WCI   7
$$

NEZ057>060-069>072-079>082-270200-
SOUTHWEST NEBRASKA

CITY           SKY/WX    TMP DP  RH WIND       PRES   REMARKS
NORTH PLATTE   FLURRIES  20  16  84 N8        30.06R WCI  10
IMPERIAL       LGT SNOW  20  16  84 N14       30.06R FOG     WCI   7
LEXINGTON      LGT SNOW  23  20  89 N12       30.04R WCI  12
MCCOOK         LGT SNOW  23  19  85 N13       30.07R FOG     WCI  11
OGALLALA       LGT SNOW  20  17  87 N10       30.07R WCI   9
$$

NEZ005>010-023>029-035>040-094-270200-
NORTH CENTRAL NEBRASKA

CITY           SKY/WX    TMP DP  RH WIND       PRES   REMARKS
VALENTINE      LGT SNOW  20  16  84 N9        30.11R VSB 3/4 WCI   9
AINSWORTH      LGT SNOW  19  17  91 N9        30.08F WCI   8
BROKEN BOW     LGT SNOW  22  18  85 N16       30.04R FOG     WCI   8
O`NEILL        LGT SNOW  22  22  96 N9        30.08R WCI  12
ORD            LGT SNOW  22  18  85 N14       30.07R VSB 1   WCI   9
THEDFORD       LGT SNOW  20  18  91 N8        30.07R WCI  11
$$

NEZ041-046>049-061>064-073>077-083>087-270200-
SOUTH CENTRAL NEBRASKA

CITY           SKY/WX    TMP DP  RH WIND       PRES   REMARKS
GRAND ISLAND   LGT SNOW  23  21  92 N15       30.05R FOG     WCI  10
AURORA         LGT SNOW  26  24  94 N15       30.03R WCI  13
HASTINGS       LGT SNOW  24  21  88 N16       30.02R FOG     WCI  11
HEBRON         MIX PCPN  29  27  92 N8        30.01F WCI  22
HOLDREGE       LGT SNOW  23  20  89 N16G22    30.04R WCI   9
KEARNEY *      CLOUDY    23  19  86 NW20      30.03S WCI   8
YORK           LGT SNOW  27  25  93 N15       30.02R WCI  15
$$

NEZ011>018-030>034-042>045-270200-
NORTHEAST NEBRASKA

CITY           SKY/WX    TMP DP  RH WIND       PRES   REMARKS
NORFOLK        LGT SNOW  25  23  92 N15       30.04R FOG     WCI  13
ALBION         LGT SNOW  24  19  84 N14G21    30.05R WCI  11
BLAIR          CLOUDY    32  29  90 N13       30.00S FOG     WCI  22
COLUMBUS *     CLOUDY    27  21  80 N14       30.04S WCI  15
FREMONT        CLOUDY    32  29  90 N9G20     30.02F WCI  24
TEKAMAH        CLOUDY    32  28  85 N14       30.04R WCI  22
WAYNE          LGT SNOW  28  26  93 N10       30.05R WCI  18
$$

NEZ050>053-065>068-078-088>093-270200-
SOUTHEAST NEBRASKA

CITY           SKY/WX    TMP DP  RH WIND       PRES   REMARKS
LINCOLN        CLOUDY    31  28  89 N14       30.00F WCI  21
OMAHA EPPLEY   FRZ DRZL  32  31  96 N10       30.04R FOG     WCI  24
BEATRICE       CLOUDY    31  30  97 N7        30.01R FOG     WCI  24
FALLS CITY     CLOUDY    34  32  92 N7        29.98R FOG     WCI  28
NEBRASKA CITY  CLOUDY    32  32 100 N10       29.98F FOG     WCI  24
PLATTSMOUTH    CLOUDY    32  30  93 N7        30.00S FOG     WCI  26
$$

NEZ044-045-051>053-067-270200-
OMAHA AREA

CITY           SKY/WX    TMP DP  RH WIND       PRES   REMARKS
OMAHA EPPLEY   FRZ DRZL  32  31  96 N10       30.04R FOG     WCI  24
BLAIR          CLOUDY    32  29  90 N13       30.00S FOG     WCI  22
FREMONT        CLOUDY    32  29  90 N9G20     30.02F WCI  24
MILLARD        DRIZZLE   33  31  93 N3        30.01F
OFFUTT AFB     DRIZZLE   33  31  94 N8        30.00S FOG     WCI  25
PLATTSMOUTH    CLOUDY    32  30  93 N7        30.00S FOG     WCI  26
WAHOO          FLURRIES  32  28  86 N16       30.00F WCI  21
$$



USA.gov is the U.S. government's official web portal to all federal, state and local government web resources and services.